Weather History for PADQ - October, 2014

Change the Weather History Date:

Saturday, October 25, 2014

  Actual Average Record
Temperature  
Mean Temperature 36 °F 38 °F  
Max Temperature 46 °F 44 °F 53 °F (1978)
Min Temperature 25 °F 32 °F 14 °F (1985)
Degree Days  
Heating Degree Days 29 27  
Month to date heating degree days 605 594  
Since 1 July heating degree days 1476 1692  
Cooling Degree Days 0    
Month to date cooling degree days 0  
Year to date cooling degree days 4  
Moisture  
Dew Point 26 °F    
Average Humidity 0    
Maximum Humidity 0    
Minimum Humidity 0    
Precipitation  
Precipitation 0.00 in 0.25 in 1.46 in (2007)
Month to date precipitation 4.76 6.75  
Year to date precipitation 61.51 60.89  
Snow  
Snow 0.00 in 0.10 in 2.70 in (1994)
Month to date snowfall 0.2 0.7  
Since 1 July snowfall 0.2 0.7  
Since 1 September snowfall 0.2 0.7  
Snow Depth 0.00 in    
Sea Level Pressure  
Sea Level Pressure 29.88 in    
Wind  
Wind Speed 6 mph (West)    
Max Wind Speed 10 mph    
Max Gust Speed 13 mph    
Visibility 10 miles    
Events      
T = Trace of Precipitation, MM = Missing Value Source: NWS Daily Summary

Daily Weather History Graph

Daily Weather History Graph

Search for Another Location

Airport or City:

Trip Planner

Search our weather history database for the weather conditions in past years. The results will help you decide how hot, cold, wet, or windy it might be!

Date:

Astronomy

Oct. 25, 2014 Rise Set
Actual Time 9:07 AM AKDT 6:39 PM AKDT
Civil Twilight 8:26 AM AKDT 7:20 PM AKDT
Nautical Twilight 7:41 AM AKDT 8:05 PM AKDT
Astronomical Twilight 6:56 AM AKDT 8:50 PM AKDT
Moon 11:15 AM AKDT (10/25) 7:49 PM AKDT (10/25)
Length of Visible Light 10h 53m
Length of Day
9h 31m
Waxing Crescent, 4% of the Moon is Illuminated
Oct 25
Waxing Crescent
Oct 30
First Quarter
Nov 6
Full
Nov 14
Last Quarter
Nov 22
New

Hourly Weather History & Observations

Time (AKDT) Temp. Windchill Dew Point Humidity Pressure Visibility Wind Dir Wind Speed Gust Speed Precip Events Conditions
12:53 AM 30.9 °F 26.2 °F 27.0 °F 85% 29.92 in 10.0 mi West 4.6 mph - N/A   Clear
1:53 AM 30.9 °F 26.2 °F 27.0 °F 85% 29.92 in 10.0 mi NW 4.6 mph - N/A   Clear
2:53 AM 30.9 °F - 26.1 °F 82% 29.93 in 10.0 mi Calm Calm - N/A   Clear
3:53 AM 28.9 °F 23.9 °F 26.1 °F 89% 29.93 in 10.0 mi WNW 4.6 mph - N/A   Clear
4:53 AM 28.0 °F 20.8 °F 25.0 °F 88% 29.92 in 10.0 mi West 6.9 mph - N/A   Clear
5:53 AM 27.0 °F 18.7 °F 24.1 °F 89% 29.91 in 10.0 mi West 8.1 mph - N/A   Clear
6:53 AM 27.0 °F 18.0 °F 25.0 °F 92% 29.92 in 10.0 mi West 9.2 mph - N/A   Clear
7:53 AM 27.0 °F 18.7 °F 24.1 °F 89% 29.91 in 10.0 mi West 8.1 mph - N/A   Partly Cloudy
8:53 AM 27.0 °F 21.6 °F 24.1 °F 89% 29.90 in 10.0 mi West 4.6 mph - N/A   Scattered Clouds
9:53 AM 27.0 °F 18.7 °F 24.1 °F 89% 29.90 in 10.0 mi West 8.1 mph - N/A   Partly Cloudy
10:53 AM 32.0 °F 25.6 °F 27.0 °F 82% 29.90 in 10.0 mi West 6.9 mph - N/A   Scattered Clouds
11:53 AM 37.0 °F 34.5 °F 30.0 °F 76% 29.89 in 10.0 mi West 3.5 mph - N/A   Scattered Clouds
12:53 PM 44.1 °F 41.5 °F 24.1 °F 45% 29.88 in 10.0 mi WNW 4.6 mph - N/A   Partly Cloudy
1:53 PM 45.0 °F 41.2 °F 24.1 °F 44% 29.87 in 10.0 mi WNW 6.9 mph - N/A   Partly Cloudy
2:53 PM 46.0 °F 43.1 °F 27.0 °F 47% 29.86 in 10.0 mi Variable 5.8 mph - N/A   Partly Cloudy
3:53 PM 45.0 °F 41.8 °F 30.0 °F 56% 29.85 in 10.0 mi East 5.8 mph - N/A   Partly Cloudy
4:53 PM 44.1 °F 40.8 °F 28.9 °F 55% 29.84 in 10.0 mi SE 5.8 mph - N/A   Partly Cloudy
5:53 PM 42.1 °F - 28.0 °F 58% 29.84 in 10.0 mi Calm Calm - N/A   Partly Cloudy
6:53 PM 33.1 °F 26.9 °F 27.0 °F 78% 29.84 in 10.0 mi West 6.9 mph - N/A   Partly Cloudy
7:53 PM 30.0 °F 23.2 °F 25.0 °F 82% 29.85 in 10.0 mi West 6.9 mph - N/A   Clear
8:53 PM 28.9 °F 21.9 °F 25.0 °F 85% 29.85 in 10.0 mi West 6.9 mph - N/A   Clear
9:53 PM 30.0 °F 21.7 °F 25.0 °F 82% 29.84 in 10.0 mi West 9.2 mph - N/A   Clear
10:53 PM 28.9 °F 21.9 °F 24.1 °F 82% 29.84 in 10.0 mi West 6.9 mph - N/A   Scattered Clouds
11:53 PM 28.0 °F 21.7 °F 24.1 °F 85% 29.85 in 10.0 mi West 5.8 mph - N/A   Scattered Clouds